Regional Weather Roundup
Issued by NWS

Home | Current Version | Previous Version | Text Only | Print | Product List | Glossary On
Versions: 1 2 3 4 5 6 7 8 9 10 11 12 13 14 15 16 17 18 19 20 21 22 23 24 25 26 27 28 29 30 31 32 33 34 35 36 37 38 39 40 41 42 43 44 45 46 47 48 49 50
000
ASUS43 KMPX 290810
RWRMN
WEATHER ROUNDUP FOR MINNESOTA
NATIONAL WEATHER SERVICE TWIN CITIES/CHANHASSEN MN
300 AM CDT WED JUL 29 2015


NOTE: "FAIR" INDICATES FEW OR NO CLOUDS BELOW 12,000 FEET WITH NO
SIGNIFICANT WEATHER AND/OR OBSTRUCTIONS TO VISIBILITY. N/A MEANS
CURRENT SKY AND/OR WEATHER CONDITIONS ARE NOT AVAILABLE.

MNZ060>063-068>070-290900-
   Twin Cities Metro

CITY           SKY/WX    TMP DP  RH WIND       PRES   REMARKS
TWIN CITIES    CLEAR     69  57  65 SW12      29.92F
ST PAUL        CLEAR     68  58  70 SW9       29.92F
CRYSTAL        CLEAR     70  54  56 SW13      29.90S
BLAINE         CLEAR     70  55  60 SW10      29.91S
LAKEVILLE      CLEAR     64  57  77 SW7       29.94F
EDEN PRAIRIE   CLEAR     65  58  78 SW9       29.93S
SOUTH ST PAUL  CLEAR     68  57  68 SW5       29.92F
LAKE ELMO      FAIR      64  61  88 SW8       29.92F
$$
MNZ001>005-007-008-013>017-022>024-027-028-290900-
   Northwest Minnesota

CITY           SKY/WX    TMP DP  RH WIND       PRES   REMARKS
BEMIDJI        CLOUDY    63  50  62 SW20G33   29.67S
HALLOCK        CLOUDY    64  57  77 W23G32    29.45R
ROSEAU         CLOUDY    59  54  82 S21G29    29.46S
WARROAD        CLOUDY    61  55  82 SW20G35   29.46F
THIEF RVR FALL CLOUDY    63  54  72 SW18G25   29.57F
CROOKSTON      CLOUDY    64  54  68 W22G30    29.61R
FOSSTON        CLOUDY    61  52  72 SW24G32   29.66S
DETROIT LAKES  CLOUDY    64  50  59 W20G31    29.77F
MOORHEAD       CLOUDY    64  52  63 W18G30    29.75S
PARK RAPIDS    CLOUDY    65  48  54 W28G41    29.74F
MAHNOMEN       CLOUDY    62  51  67 SW18G25   29.70F
$$
MNZ006-009>011-018-025>026-290900-
   North Central Minnesota

CITY           SKY/WX    TMP DP  RH WIND       PRES   REMARKS
BAUDETTE       CLOUDY    63  52  67 SW26G38   29.50F
FLAG ISLAND    CLOUDY    63  59  88 SW29G45   29.40F
INTL FALLS     CLOUDY    65  48  54 SW16G32   29.55F
WASKISH        CLOUDY    64  55  72 SW23G37   29.59S
BIG FORK       PTCLDY    64  46  52 SW24G32   29.63F
LONGVILLE      CLEAR     64  48  55 SW20G29   29.72F
GRAND RAPIDS   CLEAR     64  46  52 SW15G25   29.70F
CRANE LAKE     CLEAR     64  52  63 S7        29.62F
ORR            CLEAR     64  46  52 SW15G22   29.61S
COOK           CLEAR     64  48  55 SW15G21   29.65F
WALKER         CLOUDY    64  48  57 W31G43    29.69F
$$
MNZ012-019>021-037-290900-
   Northeast Minnesota

CITY           SKY/WX    TMP DP  RH WIND       PRES   REMARKS
DULUTH         CLEAR     65  53  65 SW13      29.75F
ELY            CLEAR     64  50  59 S10G18    29.67F
HIBBING        CLEAR     65  47  52 SW8G17    29.68F
EVELETH        CLEAR     63  46  55 SW13      29.70F
DULUTH HARBOR  CLEAR     70  57  64 S16       29.74F
TWO HARBORS    CLEAR     68  57  68 SW8       29.72F
SILVER BAY     CLEAR     66  54  63 S8        29.71F
GRAND MARAIS     N/A     56  55  97 W5        29.69F
G MARAIS ARPRT   N/A     64  52  63 S10G22    29.73F
$$
MNZ029>031-032-039>041-046>048-054>057-064-290900-
   West Central Minnesota

CITY           SKY/WX    TMP DP  RH WIND       PRES   REMARKS
FERGUS FALLS   MOCLDY    64  48  55 W18G30    29.83R
WHEATON        CLEAR     64  48  55 W18G29    29.90S
MORRIS         CLEAR     63  52  67 SW14      29.88F
ALEXANDRIA     CLEAR     65  50  58 SW18G26   29.87F
ELBOW LAKE     FAIR      64  48  57 W17G26    29.86F
WADENA         MOCLDY    64  48  55 W30G40    29.78F
GLENWOOD       CLEAR     66  48  52 SW18G28   29.89S
APPLETON       CLEAR     64  52  63 SW13G21   29.92S
BENSON         CLEAR     64  50  59 W12       29.91F
ORTONVILLE     CLEAR     64  48  55 SW13G20   29.91F
MADISON        CLEAR     63  52  67 SW12      29.94F
WILLMAR        FAIR      64  55  72 SW12      29.94F
$$
MNZ033>034-036-042>043-049>051-058-059-290900-
   Central Minnesota

CITY           SKY/WX    TMP DP  RH WIND       PRES   REMARKS
ST CLOUD       CLEAR     67  50  54 SW13      29.87F
SAUK CENTRE    FAIR      62  51  67 SW12      29.87F
PAYNESVILLE    CLEAR     62  50  63 S13       29.91S
AITKIN         CLEAR     70  46  43 SW21G32   29.75F
PINE RIVER     CLEAR     64  48  55 SW14G31   29.78F
BRAINERD       CLEAR     67  47  48 SW28G41   29.78F
STAPLES        CLEAR     64  45  48 W18G30    29.79F
LONG PRAIRIE   FAIR      63  48  59 S14G25    29.85F
LITTLE FALLS   CLEAR     64  46  52 SW8G17    29.84S
LITCHFIELD     CLEAR     64  54  68 SW6       29.93S
BUFFALO        CLEAR     65  55  69 S6        29.91F
MAPLE LAKE     CLEAR     64  55  72 SW7       29.91F
$$
MNZ037-044-045-052-053-290900-
   East Central Minnesota

CITY           SKY/WX    TMP DP  RH WIND       PRES   REMARKS
PRINCETON      CLEAR     66  54  63 S6        29.87F
MORA           CLEAR     63  52  67 SW7       29.85F
CAMBRIDGE      CLEAR     66  55  68 S7        29.85F
RUSH CITY      PTCLDY    65  55  70 SW6       29.86F
MOOSE LAKE     CLEAR     61  52  72 SW8       29.77F
HINCKLEY       FAIR      63  54  72 S8        29.83F
MCGREGOR       CLEAR     66  46  48 SW12G23   29.77S
$$
MNZ071>073-080-081-089-090-097-098-290900-
   Southwest Minnesota

CITY           SKY/WX    TMP DP  RH WIND       PRES   REMARKS
MONTEVIDEO     CLEAR     63  54  72 W10G20    29.96S
GRANITE FALLS  CLEAR     60  54  79 SW9       29.97F
CANBY          CLEAR     63  51  63 SW13      29.99S
MARSHALL       CLEAR     63  50  63 W13       29.99F
REDWOOD FALLS  CLEAR     62  54  74 SW10      29.96S
OLIVIA         CLEAR     57  52  82 SW7       29.95S
PIPESTONE      CLEAR     57  54  88 SW3       30.04F
WINDOM         CLEAR     59  54  82 SW6       30.03S
WORTHINGTON    CLEAR     59  52  77 SW8       30.06S
JACKSON        CLEAR     61  55  82 W8        30.04S
TRACY          CLEAR     63  54  72 SW8       30.01S
SLAYTON        CLEAR     60  54  80 CALM      30.04F
$$
MNZ065>067-074>077-082>085-091>093-290900-
   South Central Minnesota

CITY           SKY/WX    TMP DP  RH WIND       PRES   REMARKS
MANKATO        CLEAR     63  57  82 W9        29.97F
NEW ULM        CLEAR     61  55  82 SW5       29.98S
ST JAMES       CLEAR     63  57  82 S5        30.01S
FAIRMONT       CLEAR     63  54  72 SW7       30.02F
GLENCOE        CLEAR     63  57  80 SW7       29.94F
FARIBAULT      CLEAR     64  61  88 CALM      29.97F
OWATONNA       PTCLDY    63  57  82 SW7       29.99S
WASECA         PTCLDY    59  55  88 SW5       30.01R
ALBERT LEA     MOCLDY    64  61  88 W6        30.01S
$$
MNZ078>079-086>088-094>096-290900-
   Southeast Minnesota

CITY           SKY/WX    TMP DP  RH WIND       PRES   REMARKS
ROCHESTER      MOCLDY    65  60  84 W9        29.99R
RED WING       PTCLDY    66  61  82 W3        29.92F
STANTON        PTCLDY    67  59  74 SW8       29.95S
DODGE CENTER   PTCLDY    63  59  88 W7        29.98S
WINONA         CLOUDY    72  61  68 W7        29.94R
AUSTIN         MOCLDY    66  61  82 W7        30.00R
PRESTON        CLOUDY    65  61  85 W7        29.99S
$$
ABBREVIATIONS USED IN REMARKS
   TC - TEMPERATURES IN CELSIUS
  WCI - WIND CHILL INDEX
   HX - HEAT INDEX
  VSB - VISIBILITY
$$



USA.gov is the U.S. government's official web portal to all federal, state and local government web resources and services.